User: anonymous   Login
Location: Ferma
(41.9500°N, 44.5167°E)
Time: 23:36:44
(UTC+00:00)
Language:

Meteor 1-4 Rocket - Orbit

View from above orbital plane
View from above orbital plane
View from above satellite
View from above satellite

Ground track
Ground track

The orbit data is extracted from the following two-line orbital elements,

1 04394U 70037B   22028.48308191  .00003533  00000-0  11158-3 0  9998
2 04394  81.2403 190.0998 0037714 111.7836 248.7421 15.31802232823025
Epoch (UTC): 28 January 2022 11:35:38
Eccentricity: 0.0037714
inclination: 81.2403°
perigee height: 444 km
apogee height: 496 km
right ascension of ascending node: 190.0998°
argument of perigee: 111.7836°
revolutions per day: 15.31802232
mean anomaly at epoch: 248.7421°
orbit number at epoch: 82302

The dashed part of the orbit path shows where the satellite is in the earth's shadow,  

DLR